When you browse on this site, cookies collect data to enhance your experience and personalize the content and advertising you see.
Visit our Privacy Policy to learn more. By continuing to use the site, you agree to this use of cookies and data.
  • în România
  • Lista ţărilor
  • Pe 7 zile
  • Temperatura apei
  • Hartă satelitară
  • Meteo pe hartă
  • Widget-uri
  • user-avatar
    Intrare

    Meteo pe oră la Ho Chi Minh

    Astăzi, 22 Ianuarie, Marţi

    Timp Temperatura Precipitaţii Vânt Presiune Umiditate
    00:00 +28°C° 0 mm 1 m/s 759 mmHg 69%
    01:00 +26°C° 0 mm 0 m/s 759 mmHg 73%
    02:00 +27°C° 0 mm 1 m/s 759 mmHg 72%
    03:00 +27°C° 0 mm 1 m/s 759 mmHg 72%
    04:00 +27°C° 0 mm 1 m/s 759 mmHg 72%
    05:00 +27°C° 0 mm 1 m/s 759 mmHg 71%
    06:00 +26°C° 0 mm 1 m/s 759 mmHg 70%
    07:00 +27°C° 0 mm 1 m/s 760 mmHg 69%
    08:00 +29°C° 0 mm 1 m/s 760 mmHg 63%
    09:00 +30°C° 0 mm 1 m/s 760 mmHg 57%
    10:00 +32°C° 0 mm 1 m/s 760 mmHg 50%
    11:00 +33°C° 0 mm 1 m/s 760 mmHg 47%
    12:00 +34°C° 0 mm 1 m/s 759 mmHg 44%
    13:00 +35°C° 0 mm 1 m/s 759 mmHg 41%
    14:00 +36°C° 0 mm 2 m/s 758 mmHg 43%
    15:00 +35°C° 0 mm 2 m/s 758 mmHg 44%
    16:00 +35°C° 0 mm 2 m/s 757 mmHg 45%
    17:00 +34°C° 0 mm 3 m/s 758 mmHg 49%
    18:00 +33°C° 0 mm 3 m/s 758 mmHg 54%
    19:00 +30°C° 0 mm 3 m/s 758 mmHg 58%
    20:00 +30°C° 0 mm 3 m/s 759 mmHg 59%
    21:00 +29°C° 0 mm 2 m/s 759 mmHg 60%
    22:00 +29°C° 0 mm 2 m/s 759 mmHg 61%
    23:00 +28°C° 0 mm 2 m/s 759 mmHg 61%

    Mâine, 23 Ianuarie, Miercuri

    Timp Temperatura Precipitaţii Vânt Presiune Umiditate
    00:00 +27°C° 0 mm 2 m/s 759 mmHg 62%
    01:00 +27°C° 0 mm 1 m/s 759 mmHg 63%
    02:00 +26°C° 0 mm 1 m/s 759 mmHg 65%
    03:00 +26°C° 0 mm 1 m/s 759 mmHg 66%
    04:00 +25°C° 0 mm 1 m/s 759 mmHg 67%
    05:00 +25°C° 0 mm 1 m/s 759 mmHg 68%
    06:00 +25°C° 0 mm 1 m/s 759 mmHg 68%
    07:00 +25°C° 0 mm 1 m/s 759 mmHg 68%
    08:00 +27°C° 0 mm 1 m/s 760 mmHg 61%
    09:00 +29°C° 0 mm 1 m/s 760 mmHg 54%
    10:00 +31°C° 0 mm 1 m/s 760 mmHg 47%
    11:00 +33°C° 0 mm 1 m/s 760 mmHg 42%
    12:00 +34°C° 0 mm 1 m/s 759 mmHg 37%
    13:00 +36°C° 0 mm 1 m/s 759 mmHg 31%
    14:00 +37°C° 0 mm 2 m/s 758 mmHg 31%
    15:00 +36°C° 0 mm 2 m/s 757 mmHg 31%
    16:00 +36°C° 0 mm 2 m/s 757 mmHg 31%
    17:00 +34°C° 0 mm 3 m/s 757 mmHg 42%
    18:00 +30°C° 0 mm 4 m/s 757 mmHg 53%
    19:00 +28°C° 0 mm 5 m/s 758 mmHg 64%
    20:00 +28°C° 0 mm 4 m/s 758 mmHg 64%
    21:00 +28°C° 0 mm 3 m/s 759 mmHg 64%
    22:00 +27°C° 0 mm 2 m/s 759 mmHg 64%
    23:00 +27°C° 0 mm 2 m/s 759 mmHg 65%

    Poimâine, 24 Ianuarie, Joi

    Timp Temperatura Precipitaţii Vânt Presiune Umiditate
    00:00 +26°C° 0 mm 1 m/s 759 mmHg 67%
    01:00 +26°C° 0 mm 1 m/s 759 mmHg 68%
    02:00 +26°C° 0 mm 1 m/s 759 mmHg 69%
    03:00 +25°C° 0 mm 1 m/s 758 mmHg 69%
    04:00 +25°C° 0 mm 1 m/s 758 mmHg 70%
    05:00 +25°C° 0 mm 1 m/s 759 mmHg 69%
    06:00 +24°C° 0 mm 1 m/s 759 mmHg 68%
    07:00 +24°C° 0 mm 1 m/s 759 mmHg 67%
    08:00 +26°C° 0 mm 1 m/s 760 mmHg 60%
    09:00 +27°C° 0 mm 1 m/s 760 mmHg 53%
    10:00 +29°C° 0 mm 2 m/s 761 mmHg 45%
    11:00 +31°C° 0 mm 1 m/s 760 mmHg 40%
    12:00 +32°C° 0 mm 1 m/s 759 mmHg 36%
    13:00 +34°C° 0 mm 1 m/s 759 mmHg 31%
    14:00 +34°C° 0 mm 1 m/s 758 mmHg 30%
    15:00 +34°C° 0 mm 1 m/s 757 mmHg 30%
    16:00 +34°C° 0 mm 1 m/s 757 mmHg 29%
    17:00 +32°C° 0 mm 2 m/s 757 mmHg 36%
    18:00 +30°C° 0 mm 3 m/s 758 mmHg 42%
    19:00 +28°C° 0 mm 4 m/s 758 mmHg 49%
    20:00 +28°C° 0 mm 3 m/s 759 mmHg 53%
    21:00 +27°C° 0 mm 3 m/s 759 mmHg 56%
    22:00 +27°C° 0 mm 2 m/s 760 mmHg 59%
    23:00 +26°C° 0 mm 2 m/s 760 mmHg 61%

    25 Ianuarie, Vineri

    Timp Temperatura Precipitaţii Vânt Presiune Umiditate
    00:00 +26°C° 0 mm 1 m/s 759 mmHg 63%
    01:00 +25°C° 0 mm 1 m/s 759 mmHg 64%
    02:00 +25°C° 0 mm 1 m/s 759 mmHg 65%
    03:00 +24°C° 0 mm 1 m/s 759 mmHg 66%
    04:00 +24°C° 0 mm 1 m/s 758 mmHg 66%
    05:00 +24°C° 0 mm 1 m/s 759 mmHg 66%
    06:00 +24°C° 0 mm 1 m/s 759 mmHg 65%
    07:00 +24°C° 0 mm 2 m/s 760 mmHg 65%
    08:00 +26°C° 0 mm 2 m/s 760 mmHg 58%
    09:00 +28°C° 0 mm 2 m/s 761 mmHg 51%
    10:00 +30°C° 0 mm 2 m/s 761 mmHg 44%
    11:00 +32°C° 0 mm 2 m/s 760 mmHg 39%
    12:00 +34°C° 0 mm 2 m/s 759 mmHg 35%
    13:00 +36°C° 0 mm 2 m/s 758 mmHg 30%
    14:00 +36°C° 0 mm 2 m/s 758 mmHg 29%
    15:00 +36°C° 0 mm 2 m/s 757 mmHg 28%
    16:00 +35°C° 0 mm 1 m/s 757 mmHg 27%
    17:00 +34°C° 0 mm 2 m/s 757 mmHg 36%
    18:00 +31°C° 0 mm 3 m/s 758 mmHg 46%
    19:00 +29°C° 0 mm 4 m/s 759 mmHg 55%
    20:00 +28°C° 0 mm 3 m/s 759 mmHg 61%
    21:00 +28°C° 0 mm 2 m/s 760 mmHg 66%
    22:00 +27°C° 0 mm 2 m/s 760 mmHg 72%
    23:00 +27°C° 0 mm 2 m/s 760 mmHg 72%

    26 Ianuarie, Sâmbătă

    Timp Temperatura Precipitaţii Vânt Presiune Umiditate
    00:00 +26°C° 0 mm 1 m/s 760 mmHg 73%
    01:00 +26°C° 0 mm 1 m/s 760 mmHg 73%
    02:00 +26°C° 0 mm 2 m/s 759 mmHg 72%
    03:00 +25°C° 0 mm 2 m/s 759 mmHg 71%
    04:00 +25°C° 0 mm 3 m/s 759 mmHg 70%
    05:00 +25°C° 0 mm 3 m/s 759 mmHg 68%
    06:00 +25°C° 0 mm 3 m/s 760 mmHg 67%
    07:00 +25°C° 0 mm 2 m/s 760 mmHg 66%
    08:00 +27°C° 0 mm 2 m/s 761 mmHg 59%
    09:00 +29°C° 0 mm 2 m/s 761 mmHg 52%
    10:00 +31°C° 0 mm 1 m/s 761 mmHg 46%
    11:00 +32°C° 0 mm 1 m/s 760 mmHg 42%
    12:00 +34°C° 0 mm 1 m/s 759 mmHg 38%
    13:00 +35°C° 0 mm 1 m/s 759 mmHg 34%
    14:00 +35°C° 0 mm 2 m/s 758 mmHg 37%
    15:00 +34°C° 0 mm 3 m/s 757 mmHg 41%
    16:00 +33°C° 0 mm 4 m/s 757 mmHg 44%
    17:00 +32°C° 0 mm 4 m/s 757 mmHg 50%
    18:00 +30°C° 0 mm 4 m/s 758 mmHg 55%
    19:00 +29°C° 0 mm 4 m/s 759 mmHg 61%
    20:00 +28°C° 0 mm 3 m/s 759 mmHg 62%
    21:00 +28°C° 0 mm 3 m/s 759 mmHg 64%
    22:00 +28°C° 0 mm 2 m/s 760 mmHg 65%
    23:00 +28°C° 0 mm 2 m/s 760 mmHg 64%

    27 Ianuarie, Duminică

    Timp Temperatura Precipitaţii Vânt Presiune Umiditate
    00:00 +27°C° 0 mm 2 m/s 759 mmHg 62%
    01:00 +27°C° 0 mm 2 m/s 759 mmHg 61%
    02:00 +27°C° 0 mm 2 m/s 759 mmHg 60%
    03:00 +26°C° 0 mm 2 m/s 759 mmHg 60%
    04:00 +26°C° 0 mm 2 m/s 759 mmHg 59%
    05:00 +26°C° 0.2 mm 2 m/s 759 mmHg 61%
    06:00 +25°C° 0.2 mm 2 m/s 760 mmHg 64%
    07:00 +25°C° 0.2 mm 1 m/s 760 mmHg 66%
    08:00 +26°C° 0 mm 1 m/s 761 mmHg 62%
    09:00 +27°C° 0 mm 1 m/s 761 mmHg 58%
    10:00 +29°C° 0 mm 1 m/s 762 mmHg 54%
    11:00 +30°C° 0 mm 2 m/s 761 mmHg 50%
    12:00 +31°C° 0 mm 2 m/s 760 mmHg 47%
    13:00 +32°C° 0 mm 2 m/s 759 mmHg 44%
    14:00 +32°C° 0 mm 2 m/s 759 mmHg 44%
    15:00 +32°C° 0 mm 2 m/s 759 mmHg 44%
    16:00 +32°C° 0 mm 2 m/s 758 mmHg 44%
    17:00 +31°C° 0 mm 3 m/s 759 mmHg 51%
    18:00 +29°C° 0 mm 3 m/s 759 mmHg 59%
    19:00 +27°C° 0 mm 4 m/s 759 mmHg 67%
    20:00 +27°C° 0 mm 3 m/s 760 mmHg 67%
    21:00 +27°C° 0 mm 2 m/s 760 mmHg 68%
    22:00 +27°C° 0 mm 1 m/s 760 mmHg 68%
    23:00 +27°C° 0 mm 1 m/s 760 mmHg 68%
    Arată mai mult